Vertical_Velocity
-0 -0 2 -1 -1 -1 3 1 -1 -4 0 -2 2 1 2 1 -1 -1 -0 2 3 1 2 4 4 3 2 0 2 -0 0 -2 2 1 1 -1 1 2 1 -2 -1 -3 -1
-1 3 -1 -1 -2 3 -4 -3 -3 -2 -1 1 -1 3 0 2 1 -6 -1 1 0 2 1 3 -2 2 4 -0 2 -1 2 -2 3 -1 1 0 -0 -0 1 0 -0 -0 -4
0 2 -1 -1 4 -0 3 -1 -1 -4 -1 3 0 -3 -1 1 2 0 -0 2 2 1 4 -0 -2 1 -1 3 -3 -4 3 -4 1 2 -1 -2 3 0 0 -0 1 0 -1
-1 1 0 2 -2 -2 -1 -2 0 -0 -0 -0 -1 0 3 2 3 0 -1 0 1 2 -1 1 -0 -2 -3 7 -1 1 2 -2 -4 2 1 -1 2 -0 2 0 2 1 2
-2 -1 1 0 -1 -1 -0 -0 -2 -1 -1 -0 1 2 -2 1 6 -1 -3 -3 -1 3 0 -0 -1 -2 3 -2 7 -6 2 -3 -1 -1 4 -5 -1 1 -0 2 0 2 2
-1 -1 -1 -0 -3 -2 -1 0 1 -1 -3 -2 -2 2 2 -2 -4 -2 2 1 -0 4 -2 3 -1 -2 -1 5 7 1 -0 -5 -1 2 -1 0 -1 2 -1 1 -0 1 2
0 -2 1 1 -2 -5 -5 -4 -6 -4 -1 -2 -0 1 2 2 -1 0 -1 -2 0 0 2 1 2 0 -2 -0 2 3 6 3 -1 -1 4 2 -1 1 3 2 1 -1 0
-1 -1 -0 0 1 0 -0 -1 2 1 -1 -2 -3 -0 -1 -0 2 1 -1 -2 -2 -1 1 1 1 1 3 -0 3 -1 1 4 0 -3 -1 0 3 -0 -1 0 -1 -1 3
-0 -1 -1 0 1 1 -0 1 2 -0 0 -1 -1 -3 -2 1 -2 -1 -3 -1 2 -1 -1 -0 -2 1 -3 3 -0 1 -0 5 2 -4 -1 1 6 -3 -3 -1 -2 -4 -1
-0 -0 -1 -1 -2 -1 2 3 1 0 -1 -1 0 -1 -3 -4 -2 1 1 2 0 -5 -0 3 1 -2 2 -1 1 -3 -2 2 1 4 -0 -0 0 -0 -1 0 -1 -2 -1
1 1 1 0 1 -1 -1 -1 -0 0 1 -0 -0 1 1 -1 -3 -2 -1 1 -1 2 2 1 -1 0 0 -0 1 1 1 -0 -2 -3 1 2 1 3 2 -1 2 -0 -1
1 1 3 2 1 0 0 -1 -2 -2 -0 1 0 -0 -0 -1 -2 -2 -3 -2 -2 -2 -2 6 -2 -2 -2 -0 -0 -2 -2 1 3 -1 -4 -0 -3 0 2 1 3 1 1
-1 -1 1 -1 -1 0 0 2 2 1 -0 -2 -2 -1 -0 -0 1 0 -2 -2 -2 0 -1 -0 -1 4 -2 -0 -1 -2 -1 1 -0 -1 -1 -1 -0 -2 4 1 3 -0 0
3 2 -0 0 1 0 0 0 -1 0 1 2 2 0 -0 0 -1 -2 -1 -0 -0 0 -1 -4 2 2 6 -0 1 -1 1 1 -3 1 -5 1 0 -3 -3 -1 -2 0 -1
-0 1 2 0 0 -1 -1 -0 1 0 0 -2 -1 0 1 1 0 0 0 -1 -1 0 -0 0 0 1 -2 -2 -3 -1 4 -2 -3 1 -4 -2 -2 1 -0 -2 0 2 -0
2 2 1 0 1 1 1 0 2 1 1 1 0 0 -0 -1 -0 1 1 0 -1 -1 1 1 -2 0 1 0 -0 -3 -2 -4 -1 1 4 3 -5 -3 4 -1 1 -0 2
2 1 2 2 1 2 1 0 -0 -0 1 1 -0 0 -0 -1 -1 1 3 3 2 0 -0 0 1 2 3 2 -1 -2 3 -2 1 2 0 -1 3 -1 -3 4 -2 -4 1
-0 3 1 1 3 0 -0 2 1 -0 -0 -1 -2 -1 0 -1 -1 -1 -1 -0 1 1 2 4 2 3 2 -0 -1 -5 -5 -2 0 6 -2 -1 4 -1 -1 -1 -0 10 -6
4 1 4 3 1 2 2 1 1 0 1 -0 0 0 0 -1 -2 -1 -1 -1 -1 -1 1 -0 0 -0 1 4 2 -2 0 -0 -5 -1 -4 -1 -2 -1 -2 -1 -1 -1 2
3 4 2 3 1 1 1 2 1 0 -0 0 1 -2 -2 1 0 -0 -1 -0 -2 -3 -3 -3 -4 -4 -1 4 4 1 1 -0 -0 -2 -0 -1 -0 -0 -2 -3 2 2 0
0 1 2 3 3 3 3 1 1 -0 0 1 1 -1 -1 -1 0 1 -1 -1 -0 -0 -2 0 -2 -1 -2 1 4 -2 1 3 3 -0 3 4 -3 -2 -3 2 0 -2 2
4 5 1 1 4 4 0 2 3 2 1 1 2 1 1 1 1 0 0 0 -1 -1 -2 -3 -2 -3 -3 -1 -1 1 -3 2 -1 1 -1 -2 0 -2 -0 -1 1 -1 -0
2 5 6 5 3 2 2 2 1 2 -0 0 0 -0 1 1 0 1 0 -1 -2 -3 -5 -3 -2 -1 -0 -0 1 -4 -2 -0 3 1 4 2 4 3 1 1 3 -2 -3
4 0 4 6 2 2 2 0 1 2 2 1 0 -0 -1 -1 -2 -2 -1 -1 -1 -1 -3 -3 -2 -1 -4 -2 -5 -4 -4 -4 -5 2 6 -0 -1 -1 -1 0 0 0 -0
3 5 4 2 3 1 2 1 1 1 0 -0 0 -0 -1 -1 -1 -2 -1 -2 -2 -3 -2 -2 -1 0 0 -2 -2 1 -0 -2 -4 -7 -1 7 -0 -2 1 1 0 1 -3
-0 -3 -1 1 -2 -1 1 1 -0 -1 0 0 0 -0 -0 -0 -2 -2 -2 -2 -3 -2 -1 -1 -1 -2 1 1 -1 -2 0 1 -1 -3 -6 -2 -3 6 -1 -1 -0 -1 -1
Height
3132 3132 3134 3136 3137 3138 3139 3140 3140 3140 3141 3142 3144 3144 3144 3146 3147 3149 3149 3151 3151 3151 3152 3153 3154 3155 3155 3156 3156 3156 3157 3157 3157 3157 3157 3158 3157 3157 3158 3158 3159 3160 3161
3130 3131 3132 3134 3135 3137 3137 3139 3140 3140 3140 3142 3143 3144 3144 3145 3147 3149 3149 3149 3150 3151 3152 3153 3153 3154 3154 3154 3156 3156 3156 3157 3158 3157 3157 3157 3157 3157 3158 3160 3160 3161 3162
3127 3129 3131 3132 3133 3134 3135 3136 3138 3138 3138 3140 3142 3143 3143 3144 3146 3148 3149 3150 3150 3151 3151 3151 3152 3153 3154 3154 3155 3155 3156 3156 3157 3157 3157 3156 3156 3157 3157 3160 3161 3162 3162
3125 3126 3128 3130 3130 3131 3132 3133 3135 3136 3136 3137 3138 3140 3141 3142 3144 3146 3147 3148 3150 3150 3151 3151 3152 3152 3153 3154 3154 3156 3156 3156 3156 3157 3157 3157 3156 3156 3157 3158 3160 3162 3163
3122 3123 3125 3126 3127 3128 3129 3130 3132 3133 3134 3135 3136 3137 3138 3139 3141 3144 3146 3147 3148 3148 3149 3150 3151 3151 3153 3153 3153 3155 3153 3155 3155 3156 3157 3157 3156 3156 3156 3157 3158 3159 3162
3117 3119 3120 3121 3123 3124 3125 3127 3128 3129 3130 3131 3133 3134 3136 3136 3138 3140 3142 3144 3145 3146 3147 3149 3149 3150 3151 3153 3154 3153 3153 3154 3155 3155 3156 3157 3157 3156 3156 3157 3157 3158 3160
3111 3113 3115 3116 3117 3119 3120 3121 3122 3125 3127 3128 3129 3130 3132 3133 3135 3135 3137 3139 3142 3143 3144 3146 3147 3148 3149 3151 3152 3153 3153 3153 3153 3154 3155 3155 3156 3156 3156 3157 3157 3158 3159
3109 3110 3110 3111 3112 3113 3115 3116 3119 3121 3122 3124 3125 3126 3127 3129 3131 3132 3134 3134 3138 3139 3140 3141 3143 3144 3146 3147 3149 3150 3150 3151 3150 3151 3153 3153 3155 3156 3156 3156 3156 3158 3159
3106 3108 3109 3109 3109 3109 3110 3112 3114 3116 3117 3119 3120 3122 3123 3124 3126 3127 3130 3131 3133 3134 3135 3137 3139 3141 3142 3143 3145 3146 3146 3148 3148 3148 3150 3151 3152 3154 3154 3155 3156 3157 3158
3103 3104 3106 3107 3108 3109 3109 3109 3110 3112 3113 3114 3116 3117 3119 3120 3121 3122 3123 3125 3127 3129 3130 3132 3134 3136 3137 3139 3140 3142 3143 3144 3144 3145 3147 3148 3149 3151 3153 3154 3155 3156 3156
3098 3100 3102 3103 3105 3106 3106 3107 3108 3109 3110 3111 3113 3114 3115 3116 3117 3117 3118 3120 3121 3122 3125 3127 3128 3129 3132 3133 3135 3137 3138 3139 3140 3143 3144 3146 3147 3147 3149 3150 3152 3153 3155
3093 3095 3096 3098 3099 3100 3101 3103 3104 3106 3107 3108 3108 3108 3109 3110 3111 3112 3113 3114 3116 3117 3118 3119 3122 3124 3126 3127 3129 3131 3133 3134 3135 3137 3140 3141 3142 3144 3145 3146 3147 3150 3152
3087 3089 3091 3092 3094 3096 3097 3098 3099 3100 3101 3103 3103 3104 3104 3104 3106 3106 3107 3108 3110 3111 3113 3114 3115 3117 3119 3121 3124 3125 3126 3128 3129 3131 3133 3135 3137 3139 3141 3143 3145 3146 3147
3081 3083 3085 3087 3088 3090 3091 3092 3093 3094 3094 3095 3096 3096 3097 3098 3100 3101 3102 3102 3103 3104 3106 3108 3109 3110 3112 3114 3116 3119 3121 3121 3122 3124 3126 3129 3131 3133 3136 3137 3139 3141 3143
3075 3076 3079 3081 3083 3084 3085 3086 3087 3089 3090 3090 3090 3090 3091 3092 3093 3094 3095 3096 3097 3098 3099 3101 3102 3104 3106 3108 3110 3112 3113 3114 3116 3117 3119 3122 3124 3126 3128 3131 3133 3135 3138
3069 3070 3072 3073 3075 3077 3078 3078 3080 3081 3083 3084 3084 3084 3084 3085 3085 3086 3087 3088 3090 3091 3093 3094 3095 3096 3098 3100 3103 3104 3106 3107 3108 3110 3111 3114 3116 3118 3120 3123 3125 3128 3131
3062 3063 3064 3066 3067 3068 3070 3072 3073 3074 3076 3077 3077 3077 3077 3078 3079 3079 3080 3081 3081 3082 3084 3086 3088 3090 3091 3092 3094 3095 3097 3099 3102 3103 3104 3106 3107 3110 3112 3115 3117 3120 3122
3054 3055 3057 3059 3060 3062 3063 3064 3065 3066 3067 3068 3069 3071 3072 3071 3072 3072 3073 3074 3074 3075 3077 3078 3079 3080 3083 3085 3086 3087 3088 3090 3092 3094 3095 3098 3099 3101 3103 3106 3108 3111 3113
3047 3048 3050 3052 3053 3054 3056 3058 3059 3060 3061 3062 3063 3064 3065 3065 3066 3066 3066 3067 3067 3068 3069 3070 3071 3072 3074 3075 3076 3076 3078 3080 3083 3085 3088 3090 3091 3091 3094 3096 3099 3101 3104
3039 3040 3042 3044 3046 3047 3049 3050 3051 3053 3054 3055 3057 3058 3058 3058 3058 3059 3060 3061 3061 3062 3063 3064 3064 3064 3065 3067 3068 3068 3068 3069 3071 3073 3077 3079 3080 3082 3084 3086 3089 3091 3094
3030 3032 3034 3036 3038 3040 3041 3042 3044 3045 3047 3048 3049 3050 3050 3050 3050 3051 3053 3054 3054 3055 3056 3057 3056 3056 3056 3057 3060 3060 3061 3061 3061 3063 3064 3066 3068 3071 3073 3075 3078 3081 3082
3023 3025 3027 3028 3029 3031 3033 3035 3037 3038 3039 3041 3041 3041 3042 3042 3043 3044 3045 3046 3047 3046 3045 3045 3046 3046 3045 3045 3047 3050 3050 3052 3052 3053 3054 3056 3057 3059 3061 3063 3065 3068 3070
3015 3017 3019 3020 3021 3023 3024 3027 3029 3030 3031 3033 3034 3034 3034 3035 3036 3037 3037 3037 3037 3037 3037 3036 3037 3037 3037 3036 3037 3038 3039 3039 3040 3040 3042 3043 3044 3046 3048 3050 3051 3054 3057
3006 3009 3011 3012 3014 3015 3016 3018 3020 3022 3024 3025 3025 3026 3026 3027 3028 3028 3029 3029 3029 3028 3027 3025 3025 3025 3025 3024 3025 3027 3028 3028 3030 3033 3035 3034 3034 3035 3036 3036 3039 3042 3044
2996 3000 3002 3004 3006 3008 3010 3011 3013 3015 3016 3017 3018 3019 3019 3019 3020 3020 3020 3020 3019 3019 3018 3017 3016 3015 3015 3015 3014 3014 3015 3016 3017 3018 3019 3023 3022 3023 3025 3026 3027 3028 3029
2989 2991 2995 2997 2999 3001 3002 3004 3006 3008 3010 3011 3012 3012 3012 3012 3011 3011 3010 3010 3009 3008 3007 3006 3005 3005 3006 3006 3005 3004 3004 3005 3004 3003 3003 3006 3009 3012 3011 3012 3013 3014 3016